Back to catalog

SL-8 R/B

AlivePO
NORAD 19325·ROCKET BODY·🇷🇺 Russia

Launched Jul 18, 1988 from Plesetsk Cosmodrome

Loading…

Next Passes (next 24 hours)

TLE

FreshSource: Space-Track

Epoch: Sep 14, 2026, 20:19 UTC

1 19325U 88062B   26257.84702800  .00000109  00000-0  93111-4 0  9994
2 19325  82.9519  32.8032 0034731 130.4319  31.8225 13.77921535880205

Track SL-8 R/B in real time with AllMySat

Download on the App Store